Meath Environmental Platform

Observations for Trim Market St

Time AQI Temp °C Hum % Pres Pa CO μg/m³ H₂S μg/m³ NO μg/m³ NO₂ μg/m³ O₃ μg/m³ SO₂ μg/m³ PM1 μg/m³ PM2.5 μg/m³ PM10 μg/m³
Saturday 11 July 2026
06:15 1 16.5 69 56,574 0.12 0 0 0 16.51 0 0 2.12 3.74
06:13 1 16.5 69 56,539 0.16 0 0 3.64 21.89 0 0.71 2.6 4.37
06:11 1 16.5 69 56,523 0.12 0 0 1.03 11.31 0 0.71 2.6 4.38
06:10 1 16.5 69 56,528 0.12 0 0 3.43 20.54 0 1.43 2.6 5.01
06:09 1 16.4 69 56,523 0.14 0 0.52 2.64 18.99 0 1.43 3.08 5.64
06:08 1 16.4 69 56,512 0.15 0 0 3.74 24.59 0 0.71 3.08 5.64
06:01 1 16.3 69 56,514 0.15 0 0 3.97 23.44 0 0.71 2.6 6.27
06:00 1 16.3 69 56,516 0.14 0 0 1.27 13.87 0 0 2.11 3.75
05:59 1 16.3 69 56,517 0.15 0 0.88 5.47 19.3 0 0.71 3.57 6.27
05:52 1 16.2 69 56,584 0.13 0 0.97 3.32 23.73 0 0.71 2.6 6.27
05:49 1 16.2 69 56,604 0.13 0 0 3.22 17.97 0 0 2.12 3.74
05:48 1 16.2 69 56,628 0.18 0 0 4.13 16.89 0 2.14 2.61 4.37
05:47 1 16.2 69 56,654 0.13 0 0.18 4.04 20.46 0 0.71 1.64 5
05:46 1 16.2 69 56,678 0.1 0 0 1.04 16.86 0 0 2.13 3.73
05:45 1 16.2 69 56,705 0.1 0 0 3.34 22.68 0 0 1.64 3.1
05:44 1 16.2 69 56,728 0.1 0 0 2.05 15.97 0 1.43 3.11 6.26
05:43 1 16.3 69 56,751 0.12 0 0 4.84 33.27 0 0.71 2.62 4.36
05:42 1 16.2 69 56,772 0.11 0 0.01 2.26 19.89 0 0.71 1.65 3.09
05:41 1 16.2 69 56,789 0.12 0 0 2.28 17.23 0 0.71 2.63 6.26
05:40 1 16.2 69 56,809 0.11 0 0 4.28 32.55 0 0.71 2.63 4.36